TimeGMT,TemperatureF,Dew PointF,Humidity,Sea Level PressureIn,VisibilityMPH,Wind Direction,Wind SpeedMPH,Gust SpeedMPH,PrecipitationIn,Events,Conditions,WindDirDegrees,DateUTC
12:00 AM,49,49,99,30.21,2,South,13.4,,,Rain,Light Rain,170,2013-01-07 00:00:00
12:00 AM,48.2,48.2,100,30.18,2.5,South,13.8,-,N/A,Rain,Light Rain,170,2013-01-07 00:00:00
12:30 AM,48.2,48.2,100,30.18,2.5,South,13.8,-,N/A,Rain,Light Rain,180,2013-01-07 00:30:00
1:00 AM,48.2,48.2,100,30.15,2.5,South,15.0,-,N/A,Rain,Light Rain,180,2013-01-07 01:00:00
1:30 AM,48.2,48.2,100,30.15,2.2,South,16.1,-,N/A,Rain,Light Rain,180,2013-01-07 01:30:00
2:00 AM,48.2,48.2,100,30.12,0.4,South,16.1,-,N/A,Fog-Rain,Light Rain,180,2013-01-07 02:00:00
2:30 AM,48.2,48.2,100,30.12,0.6,South,15.0,-,N/A,Fog-Rain,Light Rain,170,2013-01-07 02:30:00
3:00 AM,50.0,50.0,100,30.12,0.6,South,15.0,-,N/A,Fog-Rain,Light Rain,170,2013-01-07 03:00:00
3:30 AM,50.0,50.0,100,30.12,1.2,South,12.7,-,N/A,Rain,Light Rain,170,2013-01-07 03:30:00
4:00 AM,50.0,50.0,100,30.12,1.2,South,13.8,-,N/A,Rain,Light Rain,180,2013-01-07 04:00:00
4:30 AM,50.0,50.0,100,30.12,1.6,South,12.7,-,N/A,Rain,Light Rain,180,2013-01-07 04:30:00
5:00 AM,50.0,50.0,100,30.09,1.4,South,11.5,-,N/A,Rain,Light Rain,180,2013-01-07 05:00:00
5:30 AM,50.0,50.0,100,30.09,1.4,South,15.0,-,N/A,Rain,Light Rain,190,2013-01-07 05:30:00
6:00 AM,50,50,98,30.10,2,South,17.9,,,Rain,Light Rain,190,2013-01-07 06:00:00
6:00 AM,50.0,50.0,100,30.06,1.9,South,17.3,-,N/A,Rain,Light Rain,190,2013-01-07 06:00:00
6:30 AM,50.0,50.0,100,30.06,1.9,South,16.1,-,N/A,Rain,Light Rain,190,2013-01-07 06:30:00
7:00 AM,50.0,50.0,100,30.06,2.5,South,16.1,27.6,N/A,Rain,Light Rain,190,2013-01-07 07:00:00
7:30 AM,50.0,50.0,100,30.06,2.5,South,17.3,-,N/A,,Light Drizzle,190,2013-01-07 07:30:00
8:00 AM,50.0,50.0,100,30.06,1.6,South,16.1,-,N/A,,Light Drizzle,190,2013-01-07 08:00:00
8:30 AM,50.0,50.0,100,30.06,2.2,South,16.1,-,N/A,Rain,Light Rain,190,2013-01-07 08:30:00
9:00 AM,50.0,50.0,100,30.06,2.8,South,17.3,-,N/A,Rain,Light Rain,190,2013-01-07 09:00:00
9:30 AM,50.0,50.0,100,30.06,1.2,South,16.1,-,N/A,Rain,Light Rain,190,2013-01-07 09:30:00
10:00 AM,50.0,50.0,100,30.06,0.7,South,17.3,-,N/A,,Light Drizzle,190,2013-01-07 10:00:00
10:30 AM,50.0,50.0,100,30.06,0.3,South,18.4,-,N/A,Fog,Light Drizzle,190,2013-01-07 10:30:00
11:00 AM,50.0,50.0,100,30.06,0.2,South,16.1,-,N/A,Fog,Fog,190,2013-01-07 11:00:00
11:30 AM,50.0,50.0,100,30.06,0.7,South,16.1,-,N/A,,Mostly Cloudy,190,2013-01-07 11:30:00
12:00 PM,50,50,100,30.09,2,South,15.7,,,Rain,Light Rain,190,2013-01-07 12:00:00
12:00 PM,50.0,50.0,100,30.06,1.7,South,16.1,-,N/A,Rain,Light Rain,190,2013-01-07 12:00:00
12:30 PM,50.0,50.0,100,30.06,1.0,SSW,15.0,-,N/A,Rain,Light Rain,200,2013-01-07 12:30:00
1:00 PM,50.0,50.0,100,30.06,0.6,SSW,15.0,-,N/A,Fog-Rain,Light Rain,200,2013-01-07 13:00:00
1:30 PM,50.0,50.0,100,30.06,0.1,South,16.1,-,N/A,Fog,Light Drizzle,190,2013-01-07 13:30:00
2:00 PM,50.0,50.0,100,30.04,0.2,South,16.1,-,N/A,Fog,Light Drizzle,190,2013-01-07 14:00:00
2:30 PM,50.0,50.0,100,30.04,0.2,South,15.0,-,N/A,Fog,Light Drizzle,190,2013-01-07 14:30:00
3:00 PM,50.0,50.0,100,30.04,0.2,South,16.1,-,N/A,Fog-Rain,Light Rain,190,2013-01-07 15:00:00
3:30 PM,50.0,50.0,100,30.04,0.4,South,16.1,-,N/A,Fog-Rain,Light Rain,190,2013-01-07 15:30:00
4:00 PM,50.0,50.0,100,30.04,0.7,South,15.0,-,N/A,Rain,Light Rain,190,2013-01-07 16:00:00
4:30 PM,50.0,50.0,100,30.04,0.7,South,16.1,-,N/A,Rain,Light Rain,190,2013-01-07 16:30:00
5:00 PM,50.0,50.0,100,30.04,1.0,South,17.3,-,N/A,Rain,Light Rain,190,2013-01-07 17:00:00
5:30 PM,50.0,50.0,100,30.04,1.0,South,16.1,-,N/A,Rain,Light Rain,190,2013-01-07 17:30:00
6:00 PM,50,50,100,30.04,1,South,15.7,,,Rain,Light Rain,190,2013-01-07 18:00:00
6:00 PM,50.0,50.0,100,30.04,0.7,South,16.1,-,N/A,Rain,Light Rain,190,2013-01-07 18:00:00
6:30 PM,50.0,50.0,100,30.04,1.0,South,17.3,-,N/A,Rain,Light Rain,190,2013-01-07 18:30:00
7:00 PM,50.0,50.0,100,30.04,1.1,South,16.1,-,N/A,Rain,Light Rain,180,2013-01-07 19:00:00
7:30 PM,50.0,50.0,100,30.04,1.5,South,19.6,31.1,N/A,,Light Drizzle,190,2013-01-07 19:30:00
8:00 PM,50.0,50.0,100,30.01,1.4,South,17.3,-,N/A,,Light Drizzle,180,2013-01-07 20:00:00
8:30 PM,50.0,50.0,100,30.01,1.5,South,16.1,27.6,N/A,Rain,Light Rain,180,2013-01-07 20:30:00
9:00 PM,50.0,50.0,100,30.01,1.2,South,16.1,-,N/A,Rain,Light Rain,180,2013-01-07 21:00:00
9:30 PM,50.0,50.0,100,30.01,0.7,South,15.0,-,N/A,Rain,Light Rain,180,2013-01-07 21:30:00
10:00 PM,50.0,50.0,100,30.01,1.4,South,18.4,32.2,N/A,Rain,Light Rain,180,2013-01-07 22:00:00
10:30 PM,51.8,51.8,100,30.01,1.5,South,19.6,-,N/A,Rain,Light Rain,190,2013-01-07 22:30:00
11:00 PM,51.8,51.8,100,30.01,1.6,South,19.6,31.1,N/A,Rain,Light Rain,190,2013-01-07 23:00:00
11:30 PM,51.8,51.8,100,30.01,1.0,South,19.6,-,N/A,Rain,Light Rain,190,2013-01-07 23:30:00